Volver al catálogo

HGS 1

ASIASAT 3

ActivoComunicacionesGEO
NORAD 25126·PAYLOAD·🇺🇸 United States

Lanzado Dec 24, 1997 desde Baikonur Cosmodrome

Loading…

TLE

ActualizadoSource: Space-Track

Época: Sep 14, 2026, 05:04 UTC

1 25126U 97086A   26257.21137735 -.00000269  00000-0  00000-0 0  9995
2 25126  13.3065  30.9776 0048711  52.6033 309.0861  1.00251601106031

Sigue HGS 1 en tiempo real con AllMySat

Download on the App Store